Weather History for St. Francis, KS

Change the Weather History Date:

Thursday, March 6, 2014

  Actual Average Record
Temperature  
Mean Temperature 52 °F -  
Max Temperature 73 °F 52 °F 73 °F (2014)
Min Temperature 30 °F 22 °F 19 °F (2013)
Degree Days  
Heating Degree Days 14    
Growing Degree Days 2 (Base 50)    
Moisture  
Dew Point 19 °F    
Average Humidity 43    
Maximum Humidity 86    
Minimum Humidity 6    
Precipitation  
Precipitation 0.00 in - - ()
Sea Level Pressure  
Sea Level Pressure 29.87 in    
Wind  
Wind Speed 11 mph (SSW)    
Max Wind Speed 21 mph    
Max Gust Speed 21 mph    
Visibility 10 miles    
Events      
Averages and records for this station are not official NWS values.
T = Trace of Precipitation, MM = Missing Value Source: NWS Daily Summary

Daily Weather History Graph

Daily Weather History Graph

Search for Another Location

Airport:

Trip Planner

Search our weather history database for the weather conditions in past years. The results will help you decide how hot, cold, wet, or windy it might be!

Date:

Astronomy

Mar. 06, 2014 Rise Set
Actual Time 7:12 AM CST 6:44 PM CST
Civil Twilight 6:45 AM CST 7:11 PM CST
Nautical Twilight 6:14 AM CST 7:42 PM CST
Astronomical Twilight 5:43 AM CST 8:14 PM CST
Moon 10:22 AM CST (3/6) No Moon Set
Length of Visible Light 12h 25m
Length of Day
11h 32m
Waxing Crescent, 32% of the Moon is Illuminated
Mar 6
Waxing Crescent
Mar 8
First Quarter
Mar 16
Full
Mar 23
Last Quarter
Mar 30
New

Hourly Weather History & Observations

Time (CST) Temp. Windchill Dew Point Humidity Pressure Visibility Wind Dir Wind Speed Gust Speed Precip Events Conditions
12:15 AM 32.0 °F 24.2 °F 27.3 °F 83% 30.10 in 10.0 mi SSW 9.2 mph - N/A   Clear
12:35 AM 30.6 °F 24.7 °F 26.4 °F 85% 30.09 in 10.0 mi SSW 5.8 mph - N/A   Clear
12:55 AM 30.0 °F 23.2 °F 26.4 °F 86% 30.08 in 10.0 mi SSW 6.9 mph - N/A   Clear
1:15 AM 31.3 °F 23.3 °F 27.1 °F 85% 30.08 in 10.0 mi SW 9.2 mph - N/A   Clear
1:35 AM 33.4 °F 24.3 °F 28.8 °F 83% 30.07 in 10.0 mi SSW 12.7 mph - N/A   Clear
1:55 AM 33.8 °F 24.8 °F 28.8 °F 82% 30.06 in 10.0 mi SW 12.7 mph - N/A   Clear
2:15 AM 33.4 °F 25.4 °F 28.2 °F 81% 30.06 in 10.0 mi SW 10.4 mph - N/A   Clear
2:35 AM 32.0 °F 23.0 °F 27.5 °F 83% 30.04 in 10.0 mi SW 11.5 mph - N/A   Clear
2:55 AM 32.4 °F 23.0 °F 27.9 °F 83% 30.03 in 10.0 mi SW 12.7 mph - N/A   Clear
3:15 AM 32.0 °F 23.0 °F 27.5 °F 83% 30.02 in 10.0 mi SW 11.5 mph - N/A   Clear
3:35 AM 31.1 °F 22.4 °F 27.0 °F 85% 30.02 in 10.0 mi SW 10.4 mph - N/A   Clear
3:55 AM 31.3 °F 22.7 °F 27.5 °F 86% 29.99 in 10.0 mi SSW 10.4 mph - N/A   Clear
4:15 AM 32.0 °F 22.5 °F 27.5 °F 83% 29.99 in 10.0 mi SW 12.7 mph - N/A   Clear
4:35 AM 31.8 °F 22.8 °F 27.5 °F 84% 29.98 in 10.0 mi SW 11.5 mph - N/A   Clear
4:55 AM 32.0 °F 22.5 °F 27.5 °F 83% 29.98 in 10.0 mi SW 12.7 mph - N/A   Clear
5:15 AM 31.5 °F 22.3 °F 27.0 °F 83% 29.97 in 10.0 mi SW 11.5 mph - N/A   Clear
5:35 AM 31.5 °F 21.8 °F 26.6 °F 82% 29.97 in 10.0 mi SW 12.7 mph - N/A   Clear
5:55 AM 30.9 °F 21.7 °F 26.4 °F 83% 29.97 in 10.0 mi SW 11.5 mph - N/A   Clear
6:15 AM 32.2 °F 21.8 °F 26.6 °F 80% 29.96 in 10.0 mi SSW 15.0 mph - N/A   Clear
6:35 AM 32.4 °F 22.1 °F 26.2 °F 78% 29.95 in 10.0 mi SSW 15.0 mph - N/A   Clear
6:55 AM 32.2 °F 21.4 °F 26.1 °F 78% 29.94 in 10.0 mi SSW 16.1 mph - N/A   Clear
7:15 AM 32.9 °F 22.8 °F 25.7 °F 75% 29.94 in 10.0 mi SSW 15.0 mph - N/A   Clear
7:35 AM 32.9 °F 24.1 °F 25.7 °F 75% 29.94 in 10.0 mi SW 11.5 mph - N/A   Clear
7:55 AM 33.8 °F 25.3 °F 26.2 °F 74% 29.94 in 10.0 mi SW 11.5 mph - N/A   Clear
8:15 AM 35.2 °F 27.1 °F 27.0 °F 72% 29.94 in 10.0 mi SW 11.5 mph - N/A   Clear
8:35 AM 38.1 °F 31.2 °F 27.5 °F 66% 29.96 in 10.0 mi WSW 10.4 mph - N/A   Clear
8:55 AM 39.6 °F 32.5 °F 27.9 °F 63% 29.95 in 10.0 mi SW 11.5 mph - N/A   Clear
9:15 AM 43.0 °F 36.8 °F 27.7 °F 55% 29.95 in 10.0 mi SW 11.5 mph - N/A   Clear
9:35 AM 44.4 °F 38.6 °F 27.7 °F 52% 29.95 in 10.0 mi SW 11.5 mph - N/A   Clear
9:55 AM 47.7 °F - 27.5 °F 46% 29.94 in 10.0 mi SW 13.8 mph - N/A   Clear
10:15 AM 52.5 °F - 26.1 °F 36% 29.92 in 10.0 mi SW 11.5 mph - N/A   Clear
10:35 AM 57.7 °F - 24.3 °F 28% 29.91 in 10.0 mi SW 16.1 mph - N/A   Clear
10:55 AM 58.8 °F - 23.4 °F 26% 29.90 in 10.0 mi SSW 11.5 mph - N/A   Clear
11:15 AM 62.2 °F - 22.1 °F 21% 29.89 in 10.0 mi SSW 11.5 mph - N/A   Clear
11:35 AM 64.6 °F - 20.1 °F 18% 29.88 in 10.0 mi SSW 11.5 mph - N/A   Clear
11:55 AM 67.1 °F - 12.9 °F 12% 29.88 in 10.0 mi SW 11.5 mph - N/A   Clear
12:15 PM 66.6 °F - 8.4 °F 10% 29.87 in 10.0 mi SSW 10.4 mph 16.1 mph N/A   Clear
12:35 PM 69.8 °F - 5.5 °F 8% 29.86 in 10.0 mi SSW 11.5 mph 17.3 mph N/A   Clear
12:55 PM 70.9 °F - 3.9 °F 7% 29.84 in 10.0 mi WSW 11.5 mph - N/A   Clear
1:15 PM 72.1 °F - 1.4 °F 6% 29.83 in 10.0 mi SSW 16.1 mph 20.7 mph N/A   Clear
1:35 PM 73.6 °F - 2.5 °F 6% 29.82 in 10.0 mi SW 17.3 mph - N/A   Clear
1:55 PM 73.4 °F - 1.0 °F 6% 29.81 in 10.0 mi SW 15.0 mph 20.7 mph N/A   Clear
2:15 PM 72.9 °F - 0.5 °F 6% 29.79 in 10.0 mi SW 13.8 mph 18.4 mph N/A   Clear
2:35 PM 70.9 °F - -0.4 °F 6% 29.78 in 10.0 mi SW 12.7 mph - N/A   Clear
2:55 PM 72.3 °F - 2.3 °F 6% 29.77 in 10.0 mi SSW 10.4 mph - N/A   Clear
3:15 PM 70.9 °F - 3.4 °F 7% 29.76 in 10.0 mi SSW 10.4 mph - N/A   Clear
3:35 PM 71.2 °F - 1.8 °F 7% 29.76 in 10.0 mi SW 11.5 mph - N/A   Clear
3:55 PM 70.7 °F - 3.2 °F 7% 29.76 in 10.0 mi SSW 6.9 mph - N/A   Clear
4:15 PM 70.2 °F - 4.6 °F 8% 29.76 in 10.0 mi SSW 12.7 mph - N/A   Clear
4:35 PM 69.8 °F - 5.7 °F 8% 29.76 in 10.0 mi SSW 9.2 mph - N/A   Clear
4:55 PM 70.3 °F - 6.6 °F 8% 29.75 in 10.0 mi SSW 8.1 mph - N/A   Clear
5:15 PM 68.9 °F - 8.4 °F 9% 29.74 in 10.0 mi South 11.5 mph - N/A   Clear
5:35 PM 68.5 °F - 9.7 °F 10% 29.74 in 10.0 mi South 10.4 mph - N/A   Clear
5:55 PM 64.8 °F - 13.1 °F 13% 29.74 in 10.0 mi South 10.4 mph - N/A   Clear
6:15 PM 60.4 °F - 16.7 °F 18% 29.75 in 10.0 mi South 11.5 mph - N/A   Clear
6:35 PM 57.9 °F - 18.5 °F 22% 29.76 in 10.0 mi South 11.5 mph - N/A   Clear
6:55 PM 56.5 °F - 18.5 °F 23% 29.76 in 10.0 mi South 11.5 mph - N/A   Clear
7:15 PM 54.5 °F - 19.2 °F 25% 29.76 in 10.0 mi South 10.4 mph - N/A   Clear
7:35 PM 53.2 °F - 20.3 °F 28% 29.75 in 10.0 mi South 9.2 mph - N/A   Clear
7:55 PM 52.0 °F - 20.5 °F 29% 29.75 in 10.0 mi South 10.4 mph - N/A   Clear
8:15 PM 51.1 °F - 19.9 °F 29% 29.74 in 10.0 mi South 12.7 mph - N/A   Clear
8:35 PM 52.9 °F - 19.0 °F 26% 29.73 in 10.0 mi South 15.0 mph - N/A   Clear
8:55 PM 55.6 °F - 18.1 °F 23% 29.73 in 10.0 mi South 17.3 mph - N/A   Clear
9:15 PM 54.0 °F - 18.7 °F 25% 29.73 in 10.0 mi South 13.8 mph - N/A   Clear
9:35 PM 53.1 °F - 18.5 °F 26% 29.73 in 10.0 mi South 18.4 mph - N/A   Clear
9:55 PM 51.1 °F - 19.0 °F 28% 29.73 in 10.0 mi South 15.0 mph - N/A   Clear
10:15 PM 51.6 °F - 19.6 °F 28% 29.72 in 10.0 mi South 20.7 mph - N/A   Clear
10:35 PM 52.7 °F - 19.2 °F 27% 29.71 in 10.0 mi South 20.7 mph - N/A   Clear
10:55 PM 52.0 °F - 19.4 °F 28% 29.70 in 10.0 mi South 18.4 mph - N/A   Clear
11:15 PM 51.6 °F - 20.1 °F 29% 29.70 in 10.0 mi South 16.1 mph - N/A   Clear
11:35 PM 49.8 °F - 20.5 °F 32% 29.70 in 10.0 mi WSW 8.1 mph - N/A   Clear
11:55 PM 47.1 °F - 21.9 °F 37% 29.70 in 10.0 mi SSW 9.2 mph - N/A   Clear